Location: Ciochowice
(50.4289°N, 18.5217°E)
Time: 10:56:37
(UTC+02:00)

ISS - Pass Details

Date: 24 January 2019
Orbit: 411 x 421 km, 51.6° (Epoch: 18 October)

Event Time Altitude Azimuth Distance (km) Brightness Sun altitude
Rises 17:35:31 0° 211° (SSW) 2,403 0.9 -11.2°
Reaches altitude 10° 17:37:54 10° 196° (SSW) 1,542 -0.4 -11.6°
Maximum altitude 17:40:40 22° 143° (SE) 1,003 -2.1 -12.0°
Enters shadow 17:42:16 16° 106° (ESE) 1,215 -1.9 -12.2°
